[[{"header":{"parameterUnit":"m.s-1","parameterCategory":1,"la1":30.2991,"la2":30.254,"lo1":-89.0895,"lo2":-89.0444,"dy":0.0017,"dx":0.0017,"nx":28,"ny":28,"refTime":"2023-09-06T21:00:00:Z","depth":0,"parameterNumber":2,"parameterNumberName":"U-component_of_WINDS"},"data":[0,0,0,0,0,0,0,0,0,0,0,0,0,0,0,0,0,0,0,0,0,0,0,0,0,0,0,0,0,0,0,0,0,0,0,0,0,0,0,0,0,0,0,0,0,0,0,0,0,0,0,0,0,0,0,0,0,0,-2.4808,-2.4808,0,-2.4843,-2.4844,-2.4844,-2.4764,-2.4761,-2.4759,-2.4756,-2.4794,-2.4797,-2.4801,0,0,0,0,0,0,0,0,0,0,0,0,0,-2.467,-2.4673,-2.4808,-2.4808,-2.4808,-2.4843,-2.4844,-2.4844,-2.4764,-2.4761,-2.4758,-2.4755,-2.4793,-2.4797,-2.4801,0,0,0,0,0,0,0,0,0,0,0,0,0,-2.4721,-2.4674,-2.4807,-2.4773,-2.477,-2.4843,-2.4844,-2.4844,-2.4765,-2.4761,-2.4757,-2.4754,-2.4792,-2.4797,-2.4802,-2.491,0,0,-2.4817,-2.4819,0,0,0,0,0,0,0,0,-2.4718,-2.4726,-2.4777,-2.4775,-2.4772,-2.4795,-2.4809,-2.4867,-2.4766,-2.4767,-2.4756,-2.4752,-2.4798,-2.4802,-2.4817,-2.4912,-2.4914,-2.4818,-2.4821,-2.4823,-2.4824,0,0,0,0,0,0,0,-2.4714,-2.4724,-2.4822,-2.4778,-2.4775,-2.4755,-2.4758,-2.482,-2.4804,-2.4767,-2.4761,-2.4766,-2.4795,-2.4812,-2.4817,-2.4914,-2.4817,-2.4822,-2.4825,-2.4827,-2.5101,-2.5105,0,0,0,0,0,0,-2.4715,-2.4721,-2.482,-2.4823,-2.4735,-2.4761,-2.4764,-2.4792,-2.4803,-2.4801,-2.4769,-2.4762,-2.4806,-2.4812,-2.4818,-2.4947,-2.4823,-2.4828,-2.4831,-2.5097,-2.5102,-2.5106,0,0,0,0,0,0,-2.4713,-2.4725,-2.4819,-2.477,-2.4781,-2.4768,-2.4799,-2.4795,-2.4811,-2.4805,-2.4801,-2.479,-2.4803,-2.4811,-2.4888,-2.4947,-2.483,-2.4835,-2.5092,-2.5098,-2.5104,-2.5206,0,0,0,0,0,0,-2.4709,-2.4724,-2.4766,-2.4772,-2.4784,-2.4888,-2.4803,-2.4798,-2.482,-2.4811,-2.4823,-2.4821,-2.48,-2.4881,-2.4893,-2.4952,-2.4839,-2.5086,-2.5094,-2.5102,-2.5197,-2.5215,-2.523,0,0,0,0,0,-2.4704,-2.4793,-2.4768,-2.4781,-2.4835,-2.4892,-2.4899,-2.4873,-2.4825,-2.4867,-2.4862,-2.4821,-2.4939,-2.4889,-2.4903,-2.4964,-2.5082,-2.5092,-2.5101,-2.519,-2.5211,-2.5229,0,0,0,0,0,0,-2.4794,-2.4793,-2.4766,-2.4859,-2.4876,-2.4878,-2.493,-2.4896,-2.4928,-2.4918,-2.4884,-2.4888,-2.4971,-2.4975,-2.492,-2.507,-2.5002,-2.5015,-2.5065,-2.5086,-2.5102,-2.51,-2.4843,0,0,0,0,0,-2.4825,-2.4871,-2.4867,-2.495,-2.496,-2.4944,-2.4967,-2.4946,-2.4962,-2.4969,-2.4971,-2.4989,-2.503,-2.5057,-2.5095,-2.5196,-2.5198,-2.5245,-2.5262,-2.5275,-2.5287,-2.5342,-2.5363,-2.5137,-2.5137,-2.5137,0,0,-2.4889,-2.4894,-2.4925,-2.4968,-2.4979,-2.5028,-2.495,-2.5005,-2.5041,-2.4978,-2.5051,-2.5052,-2.507,-2.516,-2.52,-2.5166,-2.535,-2.5287,-2.5298,-2.5303,-2.5354,-2.5375,-2.5394,-2.5144,-2.5142,-2.5141,0,0,-2.503,-2.5038,-2.5108,-2.5121,-2.5138,-2.5126,-2.5143,-2.5151,-2.5149,-2.5222,-2.5175,-2.5217,-2.5288,-2.5303,-2.532,-2.5467,-2.5431,-2.548,-2.5567,-2.5621,-2.5638,-2.5654,-2.5708,-2.5727,-2.5491,-2.5492,-2.5492,0,-2.5108,-2.5179,-2.5149,-2.5207,-2.5228,-2.5172,-2.5243,-2.5256,-2.5285,-2.5301,-2.5262,-2.535,-2.5358,-2.5451,-2.5487,-2.5502,-2.5521,-2.548,-2.5638,-2.5654,-2.5668,-2.5719,-2.5739,-2.5498,-2.5497,-2.5496,-2.5496,0,-2.5274,-2.5325,-2.5379,-2.5409,-2.5435,-2.5499,-2.5479,-2.5509,-2.5485,-2.5478,-2.5552,-2.556,-2.5598,-2.5618,-2.5595,-2.5708,-2.5687,-2.5644,-2.5575,-2.5696,-2.5743,-2.5762,-2.5506,-2.5504,-2.5502,-2.5501,0,0,-2.5475,-2.5486,-2.5507,-2.552,-2.5534,-2.5573,-2.5634,-2.5671,-2.5699,-2.572,-2.5772,-2.5833,-2.5793,-2.5812,-2.579,-2.5837,-2.5955,-2.5788,-2.5788,-2.582,-2.6081,-2.6115,-2.6138,-2.593,-2.5933,-2.5936,-2.608,0,-2.5616,-2.5723,-2.5697,-2.5803,-2.5849,-2.5796,-2.585,-2.5865,-2.586,-2.5898,-2.5892,-2.5937,-2.588,-2.5891,-2.5935,-2.5931,-2.6007,-2.592,-2.5979,-2.5981,-2.5978,-2.6163,-2.6198,-2.6334,-2.6098,-2.6102,-2.6104,0,-2.5796,-2.5825,-2.5935,-2.5942,-2.5961,-2.601,-2.6042,-2.6079,-2.6095,-2.6088,-2.6109,-2.6078,-2.6139,-2.6069,-2.6153,-2.6095,-2.6117,-2.6118,-2.6123,-2.6129,-2.6051,-2.6175,-2.6377,-2.6398,-2.6132,-2.613,-2.6128,0,-2.5934,-2.5999,-2.6074,-2.6086,-2.6096,-2.6132,-2.6138,-2.6149,-2.6174,-2.6201,-2.6217,-2.6251,-2.6271,-2.6298,-2.6277,-2.6228,-2.6366,-2.6293,-2.6363,-2.6363,-2.6396,-2.6394,-2.6606,-2.6407,-2.6407,-2.6406,-2.6406,0,-2.6095,-2.6166,-2.6136,-2.6182,-2.6259,-2.6228,-2.6305,-2.6304,-2.6316,-2.6361,-2.6316,-2.636,-2.6329,-2.637,-2.6353,-2.6427,-2.6435,-2.6432,-2.6427,-2.6437,-2.6438,-2.6452,-2.6443,-2.6412,-2.6411,-2.641,-2.6409,0,-2.6263,-2.6246,-2.6324,-2.6327,-2.6329,-2.6386,-2.6388,-2.6431,-2.6421,-2.648,-2.6491,-2.6477,-2.6523,-2.6504,-2.6553,-2.6542,-2.6636,-2.6618,-2.6631,-2.6627,-2.6698,-2.6692,-2.6928,-2.6958,-2.6738,-2.674,-2.6742,0,-2.6368,-2.6421,-2.6429,-2.6456,-2.6465,-2.651,-2.6534,-2.6505,-2.6532,-2.6554,-2.6594,-2.6636,-2.6668,-2.6744,-2.6739,-2.6776,-2.6759,-2.6839,-2.6765,-2.6773,-2.6762,-2.676,-2.6766,-2.6855,-2.6857,-2.6859,-2.6861,0,-2.6558,-2.6546,-2.6583,-2.6617,-2.6647,-2.6672,-2.6694,-2.6718,-2.669,-2.6723,-2.6769,-2.6794,-2.6844,-2.6886,-2.6919,-2.6925,-2.689,-2.6884,-2.6902,-2.6914,-2.692,-2.692,-2.6674,-2.6879,-2.6878,-2.6876,-2.6875,-2.6874,-2.6698,-2.6743,-2.6756,-2.6798,-2.6811,-2.6832,-2.6873,-2.6869,-2.6907,-2.6945,-2.6925,-2.6979,-2.6993,-2.7033,-2.7044,-2.7086,-2.7055,-2.7081,-2.7088,-2.7096,-2.7106,-2.6912,-2.7092,-2.7091,-2.7091,-2.7091,-2.709,0,-2.6887,-2.6892,-2.6932,-2.6963,-2.6996,-2.6958,-2.698,-2.701,-2.7059,-2.7075,-2.7107,-2.7161,-2.7202,-2.7199,-2.7237,-2.7271,-2.7256,-2.7282,-2.728,-2.7283,-2.7131,-2.7112,-2.7294,-2.7294,-2.7294,-2.7294,-2.7294,-2.7294,-2.6989,-2.7063,-2.7054,-2.7133,-2.7138,-2.7191,-2.7207,-2.7226,-2.7238,-2.73,-2.7334,-2.7331,-2.734,-2.7378,-2.7414,-2.7412,-2.7429,-2.7462,-2.7455,-2.7313,-2.7293,-2.7274,-2.7256,-2.7466,-2.7466,-2.7603,-2.7604,-2.7605]},{"header":{"parameterUnit":"m.s-1","parameterCategory":1,"la1":30.2991,"la2":30.254,"lo1":-89.0895,"lo2":-89.0444,"dy":0.0017,"dx":0.0017,"nx":28,"ny":28,"refTime":"2023-09-06T21:00:00:Z","depth":0,"parameterNumber":3,"parameterNumberName":"V-component_of_WINDS"},"data":[0,0,0,0,0,0,0,0,0,0,0,0,0,0,0,0,0,0,0,0,0,0,0,0,0,0,0,0,0,0,0,0,0,0,0,0,0,0,0,0,0,0,0,0,0,0,0,0,0,0,0,0,0,0,0,0,0,0,-2.5699,-2.5698,0,-2.5598,-2.5597,-2.5595,-2.5525,-2.5524,-2.5524,-2.5523,-2.5416,-2.5414,-2.5411,0,0,0,0,0,0,0,0,0,0,0,0,0,-2.5825,-2.5823,-2.5699,-2.5698,-2.5696,-2.5598,-2.5597,-2.5595,-2.5525,-2.5524,-2.5523,-2.5523,-2.5417,-2.5414,-2.5411,0,0,0,0,0,0,0,0,0,0,0,0,0,-2.5752,-2.5823,-2.5699,-2.5649,-2.5644,-2.5598,-2.5596,-2.5595,-2.5525,-2.5524,-2.5523,-2.5523,-2.5418,-2.5414,-2.5411,-2.5405,0,0,-2.54,-2.5398,0,0,0,0,0,0,0,0,-2.5756,-2.5747,-2.5658,-2.5653,-2.5647,-2.5573,-2.5602,-2.5531,-2.5525,-2.557,-2.5523,-2.5522,-2.5469,-2.5461,-2.5444,-2.54,-2.5395,-2.54,-2.5397,-2.5396,-2.5395,0,0,0,0,0,0,0,-2.5761,-2.5751,-2.5659,-2.5657,-2.565,-2.563,-2.5619,-2.5588,-2.5525,-2.5566,-2.5561,-2.555,-2.5465,-2.5447,-2.544,-2.5394,-2.54,-2.5397,-2.5394,-2.5393,-2.5337,-2.5338,0,0,0,0,0,0,-2.5775,-2.5756,-2.5662,-2.5656,-2.5701,-2.5629,-2.5616,-2.5597,-2.5525,-2.5513,-2.5551,-2.5547,-2.5454,-2.5445,-2.5436,-2.5423,-2.5396,-2.5393,-2.5391,-2.5336,-2.5337,-2.5338,0,0,0,0,0,0,-2.5778,-2.5767,-2.5666,-2.5704,-2.569,-2.5627,-2.5607,-2.5596,-2.5578,-2.5514,-2.5501,-2.5544,-2.5453,-2.5441,-2.5413,-2.5418,-2.5391,-2.5388,-2.5336,-2.5337,-2.5338,-2.5398,0,0,0,0,0,0,-2.5782,-2.5769,-2.5767,-2.5705,-2.5688,-2.5646,-2.5607,-2.5594,-2.5572,-2.5566,-2.5504,-2.5493,-2.5451,-2.5419,-2.5409,-2.5413,-2.5385,-2.5335,-2.5336,-2.5337,-2.5395,-2.54,-2.5405,0,0,0,0,0,-2.5787,-2.5788,-2.5768,-2.5757,-2.5686,-2.5647,-2.5637,-2.559,-2.5573,-2.557,-2.5528,-2.5495,-2.5419,-2.5416,-2.5405,-2.5408,-2.5334,-2.5336,-2.5337,-2.5392,-2.5399,-2.5405,0,0,0,0,0,0,-2.5852,-2.5779,-2.5756,-2.5737,-2.5699,-2.5635,-2.563,-2.5599,-2.5563,-2.5559,-2.5501,-2.5487,-2.5464,-2.5433,-2.5431,-2.5397,-2.5373,-2.5372,-2.5418,-2.5424,-2.543,-2.5437,-2.5382,0,0,0,0,0,-2.5865,-2.5841,-2.5777,-2.5767,-2.5749,-2.5693,-2.5674,-2.5641,-2.5598,-2.5581,-2.5538,-2.5496,-2.5462,-2.5442,-2.5408,-2.539,-2.5374,-2.5386,-2.5391,-2.5396,-2.5396,-2.5381,-2.5385,-2.5343,-2.5343,-2.5343,0,0,-2.589,-2.5847,-2.5835,-2.5779,-2.5746,-2.572,-2.568,-2.5655,-2.5635,-2.5577,-2.5547,-2.5514,-2.5463,-2.544,-2.5427,-2.5413,-2.5404,-2.5398,-2.5402,-2.5399,-2.5383,-2.5387,-2.5391,-2.5344,-2.5343,-2.5343,0,0,-2.5923,-2.5889,-2.5876,-2.5842,-2.5792,-2.5754,-2.5751,-2.5691,-2.5667,-2.5636,-2.5591,-2.5566,-2.551,-2.5475,-2.545,-2.5467,-2.5434,-2.5458,-2.5485,-2.5471,-2.5475,-2.5477,-2.5481,-2.5484,-2.5458,-2.5458,-2.5458,0,-2.596,-2.5922,-2.5872,-2.585,-2.5825,-2.5772,-2.5757,-2.5727,-2.5667,-2.5651,-2.5636,-2.5563,-2.5526,-2.5492,-2.5496,-2.5478,-2.5471,-2.5464,-2.5478,-2.5481,-2.5482,-2.5485,-2.5487,-2.5461,-2.5461,-2.546,-2.546,0,-2.5969,-2.5943,-2.5938,-2.5882,-2.5857,-2.5838,-2.5784,-2.5764,-2.5733,-2.5696,-2.5664,-2.5617,-2.5571,-2.556,-2.553,-2.5521,-2.5514,-2.549,-2.5464,-2.549,-2.5492,-2.5493,-2.5465,-2.5464,-2.5463,-2.5463,0,0,-2.6041,-2.5957,-2.5956,-2.5929,-2.5869,-2.5846,-2.5824,-2.578,-2.5763,-2.5723,-2.5701,-2.5654,-2.5631,-2.5603,-2.5567,-2.5555,-2.5569,-2.5532,-2.553,-2.5539,-2.5554,-2.5572,-2.5574,-2.5547,-2.5547,-2.5547,-2.5558,0,-2.6063,-2.6022,-2.5976,-2.595,-2.5923,-2.5871,-2.5851,-2.5811,-2.5775,-2.5746,-2.5706,-2.5673,-2.5646,-2.5628,-2.5614,-2.5571,-2.5571,-2.5569,-2.5524,-2.5523,-2.5537,-2.5575,-2.5595,-2.5607,-2.5558,-2.5558,-2.5558,0,-2.6084,-2.6047,-2.6019,-2.5958,-2.5945,-2.5929,-2.5883,-2.5857,-2.5808,-2.5783,-2.5751,-2.5712,-2.5683,-2.5661,-2.5619,-2.5619,-2.5597,-2.5573,-2.5572,-2.5565,-2.5542,-2.5568,-2.561,-2.5611,-2.5559,-2.5559,-2.5559,0,-2.6137,-2.608,-2.6055,-2.6034,-2.5963,-2.5952,-2.5922,-2.5873,-2.5849,-2.5809,-2.5792,-2.5749,-2.5725,-2.5691,-2.5641,-2.563,-2.5603,-2.5577,-2.5579,-2.558,-2.5575,-2.5576,-2.5613,-2.5564,-2.5564,-2.5564,-2.5564,0,-2.6166,-2.615,-2.6078,-2.6062,-2.6042,-2.5988,-2.5968,-2.5933,-2.589,-2.5865,-2.5817,-2.5794,-2.573,-2.5699,-2.5659,-2.5629,-2.5619,-2.5596,-2.5585,-2.5599,-2.5602,-2.5584,-2.5581,-2.5564,-2.5564,-2.5564,-2.5564,0,-2.6222,-2.6173,-2.6142,-2.6078,-2.6061,-2.6049,-2.5992,-2.5974,-2.5935,-2.5904,-2.5893,-2.5832,-2.5792,-2.5739,-2.5683,-2.5656,-2.563,-2.5614,-2.5647,-2.564,-2.5644,-2.5644,-2.567,-2.5669,-2.5623,-2.5623,-2.5624,0,-2.6243,-2.623,-2.6164,-2.6144,-2.6116,-2.6085,-2.606,-2.6005,-2.5981,-2.5923,-2.5911,-2.5868,-2.5831,-2.577,-2.5719,-2.5675,-2.5656,-2.5668,-2.5649,-2.5663,-2.5654,-2.5655,-2.5652,-2.5673,-2.5674,-2.5674,-2.5675,0,-2.6285,-2.6261,-2.6228,-2.6185,-2.6157,-2.612,-2.6082,-2.6068,-2.6004,-2.5979,-2.5938,-2.5909,-2.5852,-2.5808,-2.5757,-2.5724,-2.5688,-2.5681,-2.5679,-2.5693,-2.5711,-2.5699,-2.5658,-2.5681,-2.568,-2.568,-2.5679,-2.5679,-2.6323,-2.6308,-2.6259,-2.6222,-2.6187,-2.6152,-2.6131,-2.6089,-2.6055,-2.6004,-2.5974,-2.5934,-2.5883,-2.5811,-2.5778,-2.5745,-2.5731,-2.5728,-2.5727,-2.5727,-2.5731,-2.5718,-2.5735,-2.5735,-2.5735,-2.5735,-2.5734,0,-2.6361,-2.6327,-2.6294,-2.6241,-2.6212,-2.6182,-2.6137,-2.6113,-2.6079,-2.6036,-2.6,-2.5952,-2.5909,-2.5854,-2.5807,-2.5791,-2.5773,-2.578,-2.578,-2.5772,-2.5747,-2.5753,-2.5795,-2.5795,-2.5795,-2.5795,-2.5795,-2.5795,-2.6378,-2.6349,-2.6319,-2.6272,-2.6237,-2.6199,-2.6175,-2.6141,-2.6106,-2.6055,-2.6019,-2.5984,-2.5935,-2.5884,-2.5842,-2.5827,-2.5811,-2.5823,-2.5803,-2.578,-2.5774,-2.5769,-2.5774,-2.582,-2.582,-2.583,-2.583,-2.5831]}]]